Location: Red Deer
(52.2681°N, 113.8112°W)
Time: 19:16:44
(UTC-07:00)

N. Korean satellite - Pass Details

Date: 04 December 2022
Orbit: 407 x 442 km, 97.3° (Epoch: 05 February)

Event Time Altitude Azimuth Distance (km) Brightness Sun altitude
Rises 07:18:08 0° 0° (N) 2,526 10.0 -9.8°
Reaches altitude 10° 07:20:44 10° 339° (NNW) 1,639 8.8 -9.5°
Maximum altitude 07:23:02 17° 299° (WNW) 1,275 8.0 -9.2°
Drops below altitude 10° 07:25:17 10° 258° (WSW) 1,618 8.7 -8.8°
Sets 07:27:51 0° 237° (WSW) 2,478 9.8 -8.5°
